Ironwood, MI

12:28 AM CST on February 12, 2016 (GMT -0600)
Gogebic-Iron County

Weather History for KIWD - July, 2012

Change the Weather History Date:

Friday, July 13, 2012

  Actual Average Record
Temperature  
Mean Temperature 78 °F -  
Max Temperature 86 °F 74 °F - (-1)
Min Temperature 69 °F 54 °F - (-1)
Cooling Degree Days 12    
Growing Degree Days 28 (Base 50)    
Moisture  
Dew Point 61 °F    
Average Humidity 52    
Maximum Humidity 61    
Minimum Humidity 43    
Precipitation  
Precipitation 0.00 in - - ()
Sea Level Pressure  
Sea Level Pressure 29.95 in    
Wind  
Wind Speed 9 mph (SSW)    
Max Wind Speed 18 mph    
Max Gust Speed 20 mph    
Visibility 10 miles    
Events Thunderstorm    
Averages and records for this station are not official NWS values.
T = Trace of Precipitation, MM = Missing Value Source: NWS Daily Summary

Daily Weather History Graph

Daily Weather History Graph

Search for Another Location

Airport or City:

Trip Planner

Search our weather history database for the weather conditions in past years. The results will help you decide how hot, cold, wet, or windy it might be!

Date:

Astronomy

Jul. 13, 2012 Rise Set
Actual Time 5:21 AM CDT 8:51 PM CDT
Civil Twilight 4:43 AM CDT 9:28 PM CDT
Nautical Twilight 3:53 AM CDT 10:18 PM CDT
Astronomical Twilight 2:47 AM CDT 11:23 PM CDT
Moon 1:03 AM CDT (7/13) 4:17 PM CDT (7/13)
Length of Visible Light 16h 45m
Length of Day
15h 30m
Waning Crescent, 26% of the Moon is Illuminated
Jul 13
Waning Crescent
Jul 18
New
Jul 26
First Quarter
Aug 1
Full
Aug 9
Last Quarter

Hourly Weather History & Observations

Time (CDT) Temp. Heat Index Dew Point Humidity Pressure Visibility Wind Dir Wind Speed Gust Speed Precip Events Conditions
6:55 AM 69.8 °F - 53.6 °F 56% 30.00 in 10.0 mi South 8.1 mph - N/A   Scattered Clouds
7:15 AM 69.8 °F - 53.6 °F 56% 30.00 in 10.0 mi South 6.9 mph - N/A   Clear
7:35 AM 71.6 °F - 55.4 °F 57% 30.00 in 10.0 mi South 9.2 mph - N/A   Clear
7:55 AM 73.4 °F - 55.4 °F 53% 29.99 in 10.0 mi SSW 9.2 mph - N/A   Partly Cloudy
8:15 AM 73.4 °F - 57.2 °F 57% 29.99 in 10.0 mi SSW 11.5 mph 17.3 mph N/A   Clear
8:35 AM 75.2 °F - 57.2 °F 53% 29.99 in 10.0 mi South 11.5 mph 17.3 mph N/A   Clear
9:35 AM 78.8 °F - 60.8 °F 54% 29.98 in 10.0 mi SSW 6.9 mph 16.1 mph N/A   Clear
10:15 AM 80.6 °F 81.5 °F 60.8 °F 51% 29.97 in 10.0 mi South 12.7 mph 19.6 mph N/A   Partly Cloudy
12:15 PM 84.2 °F 84.4 °F 60.8 °F 45% 29.98 in 10.0 mi West 11.5 mph - N/A   Partly Cloudy
12:35 PM 82.4 °F 82.9 °F 60.8 °F 48% 29.98 in 10.0 mi SW 10.4 mph - N/A   Scattered Clouds
2:15 PM 86.0 °F 86.6 °F 62.6 °F 45% 29.97 in 10.0 mi SSW 13.8 mph 17.3 mph N/A Thunderstorm Partly Cloudy
2:35 PM 86.0 °F 86.1 °F 60.8 °F 43% 29.96 in 10.0 mi SW 18.4 mph - N/A   Clear
2:55 PM 84.2 °F 84.4 °F 60.8 °F 45% 29.96 in 10.0 mi SSW 12.7 mph - N/A   Clear
3:15 PM 82.4 °F 82.9 °F 60.8 °F 48% 29.96 in 10.0 mi SW 10.4 mph 19.6 mph N/A   Clear
3:35 PM 82.4 °F 82.9 °F 60.8 °F 48% 29.95 in 10.0 mi SW 11.5 mph 16.1 mph N/A   Clear
3:55 PM 82.4 °F 83.4 °F 62.6 °F 51% 29.95 in 10.0 mi SSW 9.2 mph - N/A   Clear
4:15 PM 82.4 °F 82.9 °F 60.8 °F 48% 29.95 in 10.0 mi SSW 10.4 mph - N/A   Clear
4:35 PM 82.4 °F 83.4 °F 62.6 °F 51% 29.95 in 10.0 mi SSW 11.5 mph 16.1 mph N/A   Clear
4:55 PM 80.6 °F 81.5 °F 60.8 °F 51% 29.95 in 10.0 mi SSW 10.4 mph 17.3 mph N/A   Clear
5:15 PM 80.6 °F 81.5 °F 60.8 °F 51% 29.95 in 10.0 mi SW 8.1 mph - N/A   Clear
5:35 PM 80.6 °F 81.8 °F 62.6 °F 54% 29.94 in 10.0 mi SSW 6.9 mph - N/A   Clear
5:55 PM 80.6 °F 81.8 °F 62.6 °F 54% 29.93 in 10.0 mi South 4.6 mph - N/A   Clear
6:15 PM 82.4 °F 83.4 °F 62.6 °F 51% 29.92 in 10.0 mi South 3.5 mph - N/A   Clear
6:35 PM 82.4 °F 83.4 °F 62.6 °F 51% 29.91 in 10.0 mi South 3.5 mph - N/A   Clear
6:55 PM 82.4 °F 83.9 °F 64.4 °F 54% 29.90 in 10.0 mi South 4.6 mph - N/A   Clear
7:15 PM 82.4 °F 83.4 °F 62.6 °F 51% 29.90 in 10.0 mi SSE 5.8 mph - N/A   Clear
7:35 PM 80.6 °F 81.8 °F 62.6 °F 54% 29.91 in 10.0 mi South 4.6 mph - N/A   Clear
7:55 PM 80.6 °F 81.8 °F 62.6 °F 54% 29.92 in 10.0 mi South 4.6 mph - N/A   Clear
8:15 PM 80.6 °F 81.8 °F 62.6 °F 54% 29.92 in 10.0 mi SSE 3.5 mph - N/A   Clear
8:35 PM 78.8 °F - 62.6 °F 57% 29.92 in 10.0 mi South 5.8 mph - N/A   Clear
8:55 PM 78.8 °F - 62.6 °F 57% 29.93 in 10.0 mi South 5.8 mph - N/A   Scattered Clouds
9:15 PM 78.8 °F - 62.6 °F 57% 29.93 in 10.0 mi South 5.8 mph - N/A   Mostly Cloudy
9:35 PM 77.0 °F - 62.6 °F 61% 29.93 in 10.0 mi South 6.9 mph - N/A   Mostly Cloudy